User: anonymous   Login
Location: Unspecified
(0.0000°N, 0.0000°E)
Time: 19:04:13
(UTC+00:00)
Language:

SRMSAT - Orbit

View from above orbital plane
View from above orbital plane
View from above satellite
View from above satellite

Ground track
Ground track

The orbit data is extracted from the following two-line orbital elements,

1 37841U 11058D   18350.52443979  .00000295  00000-0  17050-4 0  9991
2 37841  19.9731  64.5397 0011897 334.5220 145.0030 14.10620888370656
Epoch (UTC): 16 December 2018 12:35:11
Eccentricity: 0.0011897
inclination: 19.9731°
perigee height: 848 km
apogee height: 866 km
right ascension of ascending node: 64.5397°
argument of perigee: 334.5220°
revolutions per day: 14.10620888
mean anomaly at epoch: 145.0030°
orbit number at epoch: 37065

The dashed part of the orbit path shows where the satellite is in the earth's shadow,  

DLR